Location: Grambois
(43.7619°N, 5.5873°E)
Time: 07:35:38
(UTC+00:00)

ADEOS II - Pass Details

Date: 07 June 2020
Orbit: 800 x 800 km, 98.5° (Epoch: 07 July)

Event Time Altitude Azimuth Distance (km) Brightness Sun altitude
Rises 02:43:36 0° 7° (N) 3,319 6.3 -10.9°
Reaches altitude 10° 02:46:02 10° 1° (N) 2,384 5.3 -10.6°
Maximum altitude 02:50:59 44° 291° (WNW) 1,104 2.7 -9.9°
Enters shadow 02:55:35 12° 222° (SW) 2,248 3.7 -9.3°
